Location: Spondin
(51.8528°N, 111.6118°W)
Time: 01:34:45
(UTC+00:00)

Tiangong - Visible Passes

Search period start: 20 July 2024 00:00
Search period end: 30 July 2024 00:00
Orbit: 374 x 377 km, 41.5° (Epoch: 19 July)

Date Brightness Start Highest point End Pass type
(mag) Time Alt. Az. Time Alt. Az. Time Alt. Az.
20 Jul 0.2 09:41:22 11° SSE 09:41:22 11° SSE 09:41:36 10° SSE visible
21 Jul 0.2 10:14:12 10° S 10:14:12 10° S 10:14:17 10° S visible
29 Jul 0.2 05:03:31 10° SSW 05:03:58 11° SSW 05:03:58 11° SSW visible
